Regional Weather Roundup
Issued by NWS

Home | Current Version | Previous Version | Graphics & Text | Print | Product List | Glossary On
Versions: 1 2 3 4 5 6 7 8 9 10 11 12 13 14 15 16 17 18 19 20 21 22 23 24 25 26 27 28 29 30 31 32 33 34 35 36 37 38 39 40 41 42 43 44 45 46 47 48 49 50
000
ASUS43 KMKX 272311
RWRWI

WISCONSIN REGIONAL WEATHER ROUNDUP
NATIONAL WEATHER SERVICE MILWAUKEE/SULLIVAN WI
600 PM CDT FRI MAY 27 2016

NOTE: "FAIR" INDICATES FEW OR NO CLOUDS BELOW 12,000 FEET WITH NO
SIGNIFICANT WEATHER AND/OR OBSTRUCTIONS TO VISIBILITY.

WIZ001-002-006>008-014>016-023>028-280000-
NORTHWEST WISCONSIN

CITY           SKY/WX    TMP DP  RH WIND       PRES   REMARKS
SUPERIOR ARPT  DRIZZLE   47  47 100 NE6       29.85F
ASHLAND        LGT RAIN  49  48  97 NE8       29.86F VSB 1/2
HAYWARD        RAIN      61  58  90 N14       29.79F FOG
SIREN          CLOUDY    63  60  91 NE6       29.79S
CUMBERLAND     DRIZZLE   61  59  94 NE7       29.78S
RICE LAKE      RAIN      62  60  93 N8        29.78S
CHETEK         RAIN      63  62  99 N7        29.76F
LADYSMITH      CLOUDY    66  64  91 NE8       29.78F
EAU CLAIRE     HVY RAIN  66  65  96 VRB3      29.72F FOG
MENOMONIE      RAIN      65  65  99 NW10      29.74S
NEW RICHMOND   NOT AVBL
OSCEOLA        LGT RAIN  66  66 100 CALM      29.78F
$$

WIZ003>005-009-010-017-018-280000-
NORTH CENTRAL WISCONSIN

CITY           SKY/WX    TMP DP  RH WIND       PRES   REMARKS
MANITOWISH WTR NOT AVBL
ARBOR VITAE    CLOUDY    72  64  74 E6        29.82F
WOODRUFF       CLOUDY    72  64  74 E6        29.82F
RHINELANDER    PTSUNNY   70  60  70 SE14G23   29.83F
EAGLE RIVER      N/A     69  56  64 SE10G16   29.84S
LAND O LAKES   LGT RAIN  69  59  69 SE9       29.86S
PHILLIPS       DRIZZLE   66  64  91 E3        29.80S
TOMAHAWK       CLOUDY    70  60  69 SE9       29.82S
MEDFORD        PTSUNNY   69  64  82 SE9       29.79S
MERRILL        MOSUNNY   72  64  73 SE16      29.81S
$$

WIZ029-030-035-036-043>047-280000-
CENTRAL WISCONSIN

CITY           SKY/WX    TMP DP  RH WIND       PRES   REMARKS
WAUSAU         CLOUDY    71  63  75 SE13G21   29.79S
MOSINEE        RAIN      66  66 100 E8G16     29.82S
MARSHFIELD     RAIN      71  65  81 E9        29.77S
STEVENS POINT  LGT RAIN  67  65  95 E9        29.80F
WAUPACA        RAIN      71  71  98 NE3       29.79F
WAUTOMA        CLOUDY    70  68  93 E8        29.78F
WISC RAPIDS    LGT RAIN  69  66  90 E5        29.79F FOG
CAMP DOUGLAS   LGT RAIN  73  73 100 E14       29.75F FOG
$$

WIZ011>013-019>022-031-037>040-048>050-280000-
NORTHEAST WISCONSIN

CITY           SKY/WX    TMP DP  RH WIND       PRES   REMARKS
ANTIGO         CLOUDY    65  63  93 SE14G20   29.84S
SHAWANO        LGT RAIN  70  66  86 E8        29.84S
OCONTO         CLOUDY   N/A N/A N/A E6        29.84S
STURGEON BAY   NOT AVBL
GREEN BAY      CLOUDY    69  66  90 SE7       29.82F FOG
MANITOWOC      LGT RAIN  59  57  93 E6        29.85F FOG
APPLETON       LGT RAIN  72  70  94 E6        29.79F FOG
CLINTONVILLE   LGT RAIN  68  64  88 E7        29.81F
OSHKOSH        LGT RAIN  69  66  90 SE14G22   29.80F FOG
$$

WIZ032>034-041-042-053>061-280000-
SOUTHWEST WISCONSIN

CITY           SKY/WX    TMP DP  RH WIND       PRES   REMARKS
LA CROSSE      LGT RAIN  73  67  81 S8        29.72F
SPARTA         PTSUNNY   76  65  70 SE7       29.74F
VIROQUA        CLOUDY    74  64  71 S6        29.75F
BOSCOBEL       CLOUDY    77  65  66 SW13      29.75R
PRAIRIE DU CHI LGT RAIN  67  65  96 CALM      29.73R
PLATTEVILLE    MOSUNNY   74  69  82 S17       29.76S
$$

WIZ056-057-062-063-064-067-068-280000-
SOUTH CENTRAL WISCONSIN

CITY           SKY/WX    TMP DP  RH WIND       PRES   REMARKS
REEDSBURG      PTSUNNY   72  68  88 SE3       29.75F
BARABOO/DELLS  CLOUDY    73  67  81 S3        29.76F
LONE ROCK      CLOUDY    77  66  68 VRB7      29.74F
MINERAL POINT  CLOUDY    73  68  83 S12G18    29.76S
MADISON        CLOUDY    74  65  73 S14       29.76F
MIDDLETON      CLOUDY    75  66  72 S12       29.77F
WATERTOWN      LGT RAIN  67  67 100 S8        29.79F
MONROE         CLOUDY    72  64  78 S15G22    29.78S
JANESVILLE     MOSUNNY   73  68  83 S12       29.78F
$$

WIZ051-052-058>065-066-070>072-280000-
SOUTHEAST WISCONSIN

CITY           SKY/WX    TMP DP  RH WIND       PRES   REMARKS
MILWAUKEE      RAIN      69  66  90 S13       29.83S FOG
WAUKESHA       CLOUDY    70  64  83 SE10      29.83S
MILWAUKEE/TIMM HVY RAIN  70  63  78 SE14      29.84R FOG
RACINE         CLOUDY    67  63  87 S8        29.85F
BURLINGTON     CLOUDY    71  66  84 S5        29.82S
KENOSHA        LGT RAIN  70  67  90 S7        29.83S
FOND DU LAC    LGT RAIN  70  66  87 SE10      29.79F
SHEBOYGAN      RAIN      65  61  87 S7        29.84S FOG
WEST BEND      CLOUDY    68  64  88 SE10      29.81F
JUNEAU         LGT RAIN  67  66  95 SE13      29.82R
$$

LSZ147-162-280000-
LAKE SUPERIOR

STATION/POSITION TIME  TEMP    WIND        PRES    WAVE
                       AIR SEA DIR/SP/G            HT/PER
                 (UTC) (F)     (DEG/KT/KT) (MB)    (FT/S)
W MID LAKE BUOY  2250   41 38   20/ 10/ 14 1012.0R   1
DEVILS ISLAND    2300   44      20/ 11/ 12 1011.8F
SAXON HARBOR     2240   45      40/  4/  5 1011.2S
$$

LMZ867-665-643>646-280000-
LAKE MICHIGAN

STATION/POSITION TIME  TEMP    WIND        PRES    WAVE
                       AIR SEA DIR/SP/G            HT/PER
                 (UTC) (F)     (DEG/KT/KT) (MB)    (FT/S)
CHAMBERS ISLAND  2240   63     130/  3/ 10 1011.5F
N MID LAKE BUOY  2250   50 47   80/  6/  8 1012.1F   0
NORTHPORT PIER   2200   55     120/  3/  4 1012.2F
SISTER BAY       2205   64     140/  8/ 11   N/A
ALGOMA LAKESHORE 2217           70/  9/ 11   N/A
KEWAUNEE LAKESHO 2200   52                 1011.0R
SHEBOYGAN LAKESH 2300   58     180/  9/ 10 1010.7R
PORT WASHINGTON  2220   61     210/  9/ 12 1011.2S
S MID LAKE BUOY  2250   57 51  140/ 10/ 10 1010.8R   1
KENOSHA   LAKESH 2300   62     170/ 12/ 14 1010.2F
$$

TC  - TEMPERATURE IN CELSIUS
VSB - VISIBILITY IN STATUTE MILES
WCI - WIND CHILL INDEX
HX  - HEAT INDEX




USA.gov is the U.S. government's official web portal to all federal, state and local government web resources and services.